<?xml version="1.0" encoding="UTF-8" standalone="no" ?>
<gpx xmlns="http://www.topografix.com/GPX/1/1" xmlns:xsi="http://www.w3.org/2001/XMLSchema-instance" xsi:schemaLocation="http://www.topografix.com/GPX/1/1 http://www.topografix.com/GPX/1/1/gpx.xsd" version="1.1" creator="VisuGPX - https://www.visugpx.com">
  <metadata>
    <name>Clermont - Royat - La Cassière - Ceyrat - Clermont</name>
    <desc><![CDATA[Départ de Clermont, montée par Royat, direction Lac de la Cassière, retour par Ceyrat]]></desc>
  </metadata>
  <trk>
    <name><![CDATA[samedi]]></name>
    <trkseg>
      <trkpt lat="45.79354" lon="3.08253">
        <ele>397.7</ele>
        <time>2013-09-05T19:04:12Z</time>
      </trkpt>
      <trkpt lat="45.79047" lon="3.0837">
        <ele>383.4</ele>
        <time>2013-09-05T19:04:12Z</time>
      </trkpt>
      <trkpt lat="45.78923" lon="3.08039">
        <ele>385.9</ele>
        <time>2013-09-05T19:04:12Z</time>
      </trkpt>
      <trkpt lat="45.78594" lon="3.07984">
        <ele>383.3</ele>
        <time>2013-09-05T19:04:12Z</time>
      </trkpt>
      <trkpt lat="45.78226" lon="3.07282">
        <ele>388.6</ele>
        <time>2013-09-05T19:04:12Z</time>
      </trkpt>
      <trkpt lat="45.7814" lon="3.0707">
        <ele>389.6</ele>
        <time>2013-09-05T19:04:12Z</time>
      </trkpt>
      <trkpt lat="45.77634" lon="3.07328">
        <ele>394.1</ele>
        <time>2013-09-05T19:04:12Z</time>
      </trkpt>
      <trkpt lat="45.77581" lon="3.06789">
        <ele>401.7</ele>
        <time>2013-09-05T19:04:12Z</time>
      </trkpt>
      <trkpt lat="45.77568" lon="3.06663">
        <ele>404</ele>
        <time>2013-09-05T19:04:12Z</time>
      </trkpt>
      <trkpt lat="45.77381" lon="3.06205">
        <ele>418.4</ele>
        <time>2013-09-05T19:04:12Z</time>
      </trkpt>
      <trkpt lat="45.77329" lon="3.06109">
        <ele>422.2</ele>
        <time>2013-09-05T19:04:12Z</time>
      </trkpt>
      <trkpt lat="45.76616" lon="3.05471">
        <ele>490.2</ele>
        <time>2013-09-05T19:04:12Z</time>
      </trkpt>
      <trkpt lat="45.76533" lon="3.05298">
        <ele>512.9</ele>
        <time>2013-09-05T19:04:12Z</time>
      </trkpt>
      <trkpt lat="45.76532" lon="3.05071">
        <ele>518.2</ele>
        <time>2013-09-05T19:04:12Z</time>
      </trkpt>
      <trkpt lat="45.7654" lon="3.04895">
        <ele>523.8</ele>
        <time>2013-09-05T19:04:12Z</time>
      </trkpt>
      <trkpt lat="45.76516" lon="3.04812">
        <ele>523.4</ele>
        <time>2013-09-05T19:04:12Z</time>
      </trkpt>
      <trkpt lat="45.76617" lon="3.04332">
        <ele>559.9</ele>
        <time>2013-09-05T19:04:12Z</time>
      </trkpt>
      <trkpt lat="45.76584" lon="3.04218">
        <ele>557.9</ele>
        <time>2013-09-05T19:04:12Z</time>
      </trkpt>
      <trkpt lat="45.76558" lon="3.0422">
        <ele>553</ele>
        <time>2013-09-05T19:04:12Z</time>
      </trkpt>
      <trkpt lat="45.76494" lon="3.0421">
        <ele>543.6</ele>
        <time>2013-09-05T19:04:12Z</time>
      </trkpt>
      <trkpt lat="45.76467" lon="3.04151">
        <ele>547.3</ele>
        <time>2013-09-05T19:04:12Z</time>
      </trkpt>
      <trkpt lat="45.7648" lon="3.03856">
        <ele>569</ele>
        <time>2013-09-05T19:04:12Z</time>
      </trkpt>
      <trkpt lat="45.76455" lon="3.03812">
        <ele>574</ele>
        <time>2013-09-05T19:04:12Z</time>
      </trkpt>
      <trkpt lat="45.76452" lon="3.03517">
        <ele>596</ele>
        <time>2013-09-05T19:04:12Z</time>
      </trkpt>
      <trkpt lat="45.76422" lon="3.0346">
        <ele>592.8</ele>
        <time>2013-09-05T19:04:12Z</time>
      </trkpt>
      <trkpt lat="45.76342" lon="3.0343">
        <ele>605.6</ele>
        <time>2013-09-05T19:04:12Z</time>
      </trkpt>
      <trkpt lat="45.76419" lon="3.03231">
        <ele>615.5</ele>
        <time>2013-09-05T19:04:12Z</time>
      </trkpt>
      <trkpt lat="45.76468" lon="3.03135">
        <ele>623.5</ele>
        <time>2013-09-05T19:04:12Z</time>
      </trkpt>
      <trkpt lat="45.76463" lon="3.02957">
        <ele>637.8</ele>
        <time>2013-09-05T19:04:12Z</time>
      </trkpt>
      <trkpt lat="45.76349" lon="3.02846">
        <ele>648.5</ele>
        <time>2013-09-05T19:04:12Z</time>
      </trkpt>
      <trkpt lat="45.76164" lon="3.0282">
        <ele>681.1</ele>
        <time>2013-09-05T19:04:12Z</time>
      </trkpt>
      <trkpt lat="45.75798" lon="3.02596">
        <ele>722.3</ele>
        <time>2013-09-05T19:04:12Z</time>
      </trkpt>
      <trkpt lat="45.7555" lon="3.02509">
        <ele>739.8</ele>
        <time>2013-09-05T19:04:12Z</time>
      </trkpt>
      <trkpt lat="45.75225" lon="3.02417">
        <ele>768</ele>
        <time>2013-09-05T19:04:12Z</time>
      </trkpt>
      <trkpt lat="45.75168" lon="3.02418">
        <ele>774.8</ele>
        <time>2013-09-05T19:04:12Z</time>
      </trkpt>
      <trkpt lat="45.75122" lon="3.02451">
        <ele>788.6</ele>
        <time>2013-09-05T19:04:12Z</time>
      </trkpt>
      <trkpt lat="45.75124" lon="3.0252">
        <ele>803.6</ele>
        <time>2013-09-05T19:04:12Z</time>
      </trkpt>
      <trkpt lat="45.75079" lon="3.02844">
        <ele>836.2</ele>
        <time>2013-09-05T19:04:12Z</time>
      </trkpt>
      <trkpt lat="45.7509" lon="3.02895">
        <ele>836.8</ele>
        <time>2013-09-05T19:04:12Z</time>
      </trkpt>
      <trkpt lat="45.74844" lon="3.02965">
        <ele>844.2</ele>
        <time>2013-09-05T19:04:12Z</time>
      </trkpt>
      <trkpt lat="45.74825" lon="3.02848">
        <ele>844.9</ele>
        <time>2013-09-05T19:04:12Z</time>
      </trkpt>
      <trkpt lat="45.74795" lon="3.02692">
        <ele>842.1</ele>
        <time>2013-09-05T19:04:12Z</time>
      </trkpt>
      <trkpt lat="45.7486" lon="3.02636">
        <ele>835.1</ele>
        <time>2013-09-05T19:04:12Z</time>
      </trkpt>
      <trkpt lat="45.74814" lon="3.0243">
        <ele>818.4</ele>
        <time>2013-09-05T19:04:12Z</time>
      </trkpt>
      <trkpt lat="45.74785" lon="3.02382">
        <ele>819.3</ele>
        <time>2013-09-05T19:04:12Z</time>
      </trkpt>
      <trkpt lat="45.74755" lon="3.02342">
        <ele>823.1</ele>
        <time>2013-09-05T19:04:12Z</time>
      </trkpt>
      <trkpt lat="45.74746" lon="3.02252">
        <ele>825.4</ele>
        <time>2013-09-05T19:04:12Z</time>
      </trkpt>
      <trkpt lat="45.74694" lon="3.022">
        <ele>830.5</ele>
        <time>2013-09-05T19:04:12Z</time>
      </trkpt>
      <trkpt lat="45.74565" lon="3.02077">
        <ele>841.2</ele>
        <time>2013-09-05T19:04:12Z</time>
      </trkpt>
      <trkpt lat="45.74371" lon="3.0189">
        <ele>842</ele>
        <time>2013-09-05T19:04:12Z</time>
      </trkpt>
      <trkpt lat="45.7419" lon="3.01704">
        <ele>854.1</ele>
        <time>2013-09-05T19:04:12Z</time>
      </trkpt>
      <trkpt lat="45.74216" lon="3.0148">
        <ele>869.5</ele>
        <time>2013-09-05T19:04:12Z</time>
      </trkpt>
      <trkpt lat="45.74267" lon="3.0133">
        <ele>875.8</ele>
        <time>2013-09-05T19:04:12Z</time>
      </trkpt>
      <trkpt lat="45.7427" lon="3.01135">
        <ele>884.5</ele>
        <time>2013-09-05T19:04:12Z</time>
      </trkpt>
      <trkpt lat="45.74194" lon="3.01136">
        <ele>883.8</ele>
        <time>2013-09-05T19:04:12Z</time>
      </trkpt>
      <trkpt lat="45.74102" lon="3.01086">
        <ele>892</ele>
        <time>2013-09-05T19:04:12Z</time>
      </trkpt>
      <trkpt lat="45.73725" lon="3.01005">
        <ele>905.1</ele>
        <time>2013-09-05T19:04:12Z</time>
      </trkpt>
      <trkpt lat="45.73578" lon="3.01133">
        <ele>908.5</ele>
        <time>2013-09-05T19:04:12Z</time>
      </trkpt>
      <trkpt lat="45.73441" lon="3.01038">
        <ele>931.9</ele>
        <time>2013-09-05T19:04:12Z</time>
      </trkpt>
      <trkpt lat="45.73348" lon="3.0089">
        <ele>938.6</ele>
        <time>2013-09-05T19:04:12Z</time>
      </trkpt>
      <trkpt lat="45.73438" lon="3.00602">
        <ele>951.5</ele>
        <time>2013-09-05T19:04:12Z</time>
      </trkpt>
      <trkpt lat="45.73307" lon="3.00168">
        <ele>967.8</ele>
        <time>2013-09-05T19:04:12Z</time>
      </trkpt>
      <trkpt lat="45.73082" lon="3.00119">
        <ele>962.8</ele>
        <time>2013-09-05T19:04:12Z</time>
      </trkpt>
      <trkpt lat="45.73015" lon="3.00241">
        <ele>955</ele>
        <time>2013-09-05T19:04:12Z</time>
      </trkpt>
      <trkpt lat="45.73013" lon="3.00046">
        <ele>970.9</ele>
        <time>2013-09-05T19:04:12Z</time>
      </trkpt>
      <trkpt lat="45.73302" lon="2.99514">
        <ele>1002.5</ele>
        <time>2013-09-05T19:04:12Z</time>
      </trkpt>
      <trkpt lat="45.73096" lon="2.99241">
        <ele>967.8</ele>
        <time>2013-09-05T19:04:12Z</time>
      </trkpt>
      <trkpt lat="45.72723" lon="2.99172">
        <ele>923.8</ele>
        <time>2013-09-05T19:04:12Z</time>
      </trkpt>
      <trkpt lat="45.72722" lon="2.9896">
        <ele>906.7</ele>
        <time>2013-09-05T19:04:12Z</time>
      </trkpt>
      <trkpt lat="45.72553" lon="2.98871">
        <ele>899.5</ele>
        <time>2013-09-05T19:04:12Z</time>
      </trkpt>
      <trkpt lat="45.72535" lon="2.98653">
        <ele>908.8</ele>
        <time>2013-09-05T19:04:12Z</time>
      </trkpt>
      <trkpt lat="45.72242" lon="2.97888">
        <ele>930</ele>
        <time>2013-09-05T19:04:12Z</time>
      </trkpt>
      <trkpt lat="45.71964" lon="2.97766">
        <ele>930.4</ele>
        <time>2013-09-05T19:04:12Z</time>
      </trkpt>
      <trkpt lat="45.71738" lon="2.97534">
        <ele>935.6</ele>
        <time>2013-09-05T19:04:12Z</time>
      </trkpt>
      <trkpt lat="45.71579" lon="2.97072">
        <ele>946</ele>
        <time>2013-09-05T19:04:12Z</time>
      </trkpt>
      <trkpt lat="45.71555" lon="2.97124">
        <ele>947.7</ele>
        <time>2013-09-05T19:04:12Z</time>
      </trkpt>
      <trkpt lat="45.71351" lon="2.97133">
        <ele>966.3</ele>
        <time>2013-09-05T19:04:12Z</time>
      </trkpt>
      <trkpt lat="45.711" lon="2.97251">
        <ele>964.6</ele>
        <time>2013-09-05T19:04:12Z</time>
      </trkpt>
      <trkpt lat="45.70855" lon="2.97191">
        <ele>977</ele>
        <time>2013-09-05T19:04:12Z</time>
      </trkpt>
      <trkpt lat="45.70742" lon="2.9709">
        <ele>978</ele>
        <time>2013-09-05T19:04:12Z</time>
      </trkpt>
      <trkpt lat="45.7063" lon="2.97097">
        <ele>965.7</ele>
        <time>2013-09-05T19:04:12Z</time>
      </trkpt>
      <trkpt lat="45.7015" lon="2.96732">
        <ele>989.1</ele>
        <time>2013-09-05T19:04:12Z</time>
      </trkpt>
      <trkpt lat="45.69802" lon="2.97963">
        <ele>944.2</ele>
        <time>2013-09-05T19:04:12Z</time>
      </trkpt>
      <trkpt lat="45.69557" lon="2.99214">
        <ele>901</ele>
        <time>2013-09-05T19:04:12Z</time>
      </trkpt>
      <trkpt lat="45.69616" lon="2.99369">
        <ele>880.8</ele>
        <time>2013-09-05T19:04:12Z</time>
      </trkpt>
      <trkpt lat="45.69641" lon="2.99484">
        <ele>876.9</ele>
        <time>2013-09-05T19:04:12Z</time>
      </trkpt>
      <trkpt lat="45.69799" lon="2.99578">
        <ele>890.2</ele>
        <time>2013-09-05T19:04:12Z</time>
      </trkpt>
      <trkpt lat="45.69925" lon="2.99991">
        <ele>865.3</ele>
        <time>2013-09-05T19:04:12Z</time>
      </trkpt>
      <trkpt lat="45.70018" lon="3.00047">
        <ele>861.4</ele>
        <time>2013-09-05T19:04:12Z</time>
      </trkpt>
      <trkpt lat="45.70207" lon="3.0026">
        <ele>843.3</ele>
        <time>2013-09-05T19:04:12Z</time>
      </trkpt>
      <trkpt lat="45.7034" lon="3.00289">
        <ele>847.3</ele>
        <time>2013-09-05T19:04:12Z</time>
      </trkpt>
      <trkpt lat="45.70475" lon="3.00732">
        <ele>831.5</ele>
        <time>2013-09-05T19:04:12Z</time>
      </trkpt>
      <trkpt lat="45.70621" lon="3.00808">
        <ele>829</ele>
        <time>2013-09-05T19:04:12Z</time>
      </trkpt>
      <trkpt lat="45.70912" lon="3.01206">
        <ele>834.4</ele>
        <time>2013-09-05T19:04:12Z</time>
      </trkpt>
      <trkpt lat="45.70902" lon="3.01325">
        <ele>837.9</ele>
        <time>2013-09-05T19:04:12Z</time>
      </trkpt>
      <trkpt lat="45.7095" lon="3.01505">
        <ele>838.4</ele>
        <time>2013-09-05T19:04:12Z</time>
      </trkpt>
      <trkpt lat="45.71362" lon="3.01793">
        <ele>861.4</ele>
        <time>2013-09-05T19:04:12Z</time>
      </trkpt>
      <trkpt lat="45.71374" lon="3.01911">
        <ele>857.1</ele>
        <time>2013-09-05T19:04:12Z</time>
      </trkpt>
      <trkpt lat="45.71462" lon="3.02086">
        <ele>853.6</ele>
        <time>2013-09-05T19:04:12Z</time>
      </trkpt>
      <trkpt lat="45.71485" lon="3.0225">
        <ele>857.9</ele>
        <time>2013-09-05T19:04:12Z</time>
      </trkpt>
      <trkpt lat="45.71268" lon="3.02656">
        <ele>835</ele>
        <time>2013-09-05T19:04:12Z</time>
      </trkpt>
      <trkpt lat="45.71288" lon="3.02705">
        <ele>833.7</ele>
        <time>2013-09-05T19:04:12Z</time>
      </trkpt>
      <trkpt lat="45.71312" lon="3.0288">
        <ele>822.7</ele>
        <time>2013-09-05T19:04:12Z</time>
      </trkpt>
      <trkpt lat="45.71359" lon="3.03013">
        <ele>809.3</ele>
        <time>2013-09-05T19:04:12Z</time>
      </trkpt>
      <trkpt lat="45.71437" lon="3.03095">
        <ele>800.5</ele>
        <time>2013-09-05T19:04:12Z</time>
      </trkpt>
      <trkpt lat="45.71475" lon="3.03265">
        <ele>813.4</ele>
        <time>2013-09-05T19:04:12Z</time>
      </trkpt>
      <trkpt lat="45.71488" lon="3.03444">
        <ele>805.6</ele>
        <time>2013-09-05T19:04:12Z</time>
      </trkpt>
      <trkpt lat="45.71559" lon="3.0367">
        <ele>790.9</ele>
        <time>2013-09-05T19:04:12Z</time>
      </trkpt>
      <trkpt lat="45.71589" lon="3.03775">
        <ele>785.2</ele>
        <time>2013-09-05T19:04:12Z</time>
      </trkpt>
      <trkpt lat="45.71565" lon="3.0409">
        <ele>745.4</ele>
        <time>2013-09-05T19:04:12Z</time>
      </trkpt>
      <trkpt lat="45.71689" lon="3.04589">
        <ele>718.2</ele>
        <time>2013-09-05T19:04:12Z</time>
      </trkpt>
      <trkpt lat="45.71793" lon="3.04979">
        <ele>698.6</ele>
        <time>2013-09-05T19:04:12Z</time>
      </trkpt>
      <trkpt lat="45.7205" lon="3.05246">
        <ele>704.2</ele>
        <time>2013-09-05T19:04:12Z</time>
      </trkpt>
      <trkpt lat="45.72055" lon="3.05423">
        <ele>693.7</ele>
        <time>2013-09-05T19:04:12Z</time>
      </trkpt>
      <trkpt lat="45.72264" lon="3.05891">
        <ele>652.5</ele>
        <time>2013-09-05T19:04:12Z</time>
      </trkpt>
      <trkpt lat="45.72344" lon="3.06149">
        <ele>611.6</ele>
        <time>2013-09-05T19:04:12Z</time>
      </trkpt>
      <trkpt lat="45.72484" lon="3.06212">
        <ele>615.6</ele>
        <time>2013-09-05T19:04:12Z</time>
      </trkpt>
      <trkpt lat="45.72465" lon="3.06359">
        <ele>581.1</ele>
        <time>2013-09-05T19:04:12Z</time>
      </trkpt>
      <trkpt lat="45.72686" lon="3.06328">
        <ele>587.4</ele>
        <time>2013-09-05T19:04:12Z</time>
      </trkpt>
      <trkpt lat="45.72902" lon="3.0644">
        <ele>573.5</ele>
        <time>2013-09-05T19:04:12Z</time>
      </trkpt>
      <trkpt lat="45.73155" lon="3.06369">
        <ele>565.2</ele>
        <time>2013-09-05T19:04:12Z</time>
      </trkpt>
      <trkpt lat="45.73532" lon="3.06427">
        <ele>556.2</ele>
        <time>2013-09-05T19:04:12Z</time>
      </trkpt>
      <trkpt lat="45.73615" lon="3.06525">
        <ele>567.7</ele>
        <time>2013-09-05T19:04:12Z</time>
      </trkpt>
      <trkpt lat="45.73702" lon="3.06722">
        <ele>553.4</ele>
        <time>2013-09-05T19:04:12Z</time>
      </trkpt>
      <trkpt lat="45.74019" lon="3.06943">
        <ele>524.1</ele>
        <time>2013-09-05T19:04:12Z</time>
      </trkpt>
      <trkpt lat="45.74049" lon="3.06933">
        <ele>525.9</ele>
        <time>2013-09-05T19:04:12Z</time>
      </trkpt>
      <trkpt lat="45.74112" lon="3.06946">
        <ele>524.9</ele>
        <time>2013-09-05T19:04:12Z</time>
      </trkpt>
      <trkpt lat="45.74192" lon="3.06933">
        <ele>525.9</ele>
        <time>2013-09-05T19:04:12Z</time>
      </trkpt>
      <trkpt lat="45.74255" lon="3.06961">
        <ele>516.6</ele>
        <time>2013-09-05T19:04:12Z</time>
      </trkpt>
      <trkpt lat="45.74432" lon="3.06913">
        <ele>513.6</ele>
        <time>2013-09-05T19:04:12Z</time>
      </trkpt>
      <trkpt lat="45.74502" lon="3.06919">
        <ele>506.7</ele>
        <time>2013-09-05T19:04:12Z</time>
      </trkpt>
      <trkpt lat="45.74593" lon="3.06903">
        <ele>501.6</ele>
        <time>2013-09-05T19:04:12Z</time>
      </trkpt>
      <trkpt lat="45.7456" lon="3.0694">
        <ele>500.2</ele>
        <time>2013-09-05T19:04:12Z</time>
      </trkpt>
      <trkpt lat="45.74584" lon="3.0698">
        <ele>495</ele>
        <time>2013-09-05T19:04:12Z</time>
      </trkpt>
      <trkpt lat="45.74726" lon="3.07052">
        <ele>501.1</ele>
        <time>2013-09-05T19:04:12Z</time>
      </trkpt>
      <trkpt lat="45.74845" lon="3.0784">
        <ele>462.2</ele>
        <time>2013-09-05T19:04:12Z</time>
      </trkpt>
      <trkpt lat="45.75142" lon="3.08019">
        <ele>458.1</ele>
        <time>2013-09-05T19:04:12Z</time>
      </trkpt>
      <trkpt lat="45.75371" lon="3.08529">
        <ele>438</ele>
        <time>2013-09-05T19:04:12Z</time>
      </trkpt>
      <trkpt lat="45.75596" lon="3.08467">
        <ele>426.7</ele>
        <time>2013-09-05T19:04:12Z</time>
      </trkpt>
      <trkpt lat="45.75694" lon="3.08363">
        <ele>416.5</ele>
        <time>2013-09-05T19:04:12Z</time>
      </trkpt>
      <trkpt lat="45.75719" lon="3.08094">
        <ele>413.5</ele>
        <time>2013-09-05T19:04:12Z</time>
      </trkpt>
      <trkpt lat="45.76248" lon="3.08279">
        <ele>393.8</ele>
        <time>2013-09-05T19:04:12Z</time>
      </trkpt>
      <trkpt lat="45.76533" lon="3.08204">
        <ele>385.8</ele>
        <time>2013-09-05T19:04:12Z</time>
      </trkpt>
      <trkpt lat="45.76784" lon="3.08194">
        <ele>384.6</ele>
        <time>2013-09-05T19:04:12Z</time>
      </trkpt>
      <trkpt lat="45.76786" lon="3.07925">
        <ele>385.7</ele>
        <time>2013-09-05T19:04:12Z</time>
      </trkpt>
      <trkpt lat="45.76981" lon="3.07614">
        <ele>391.2</ele>
        <time>2013-09-05T19:04:12Z</time>
      </trkpt>
      <trkpt lat="45.77634" lon="3.07328">
        <ele>394.1</ele>
        <time>2013-09-05T19:04:12Z</time>
      </trkpt>
      <trkpt lat="45.7814" lon="3.0707">
        <ele>389.6</ele>
        <time>2013-09-05T19:04:12Z</time>
      </trkpt>
      <trkpt lat="45.78226" lon="3.07282">
        <ele>388.6</ele>
        <time>2013-09-05T19:04:12Z</time>
      </trkpt>
      <trkpt lat="45.78594" lon="3.07984">
        <ele>383.3</ele>
        <time>2013-09-05T19:04:12Z</time>
      </trkpt>
      <trkpt lat="45.78923" lon="3.08039">
        <ele>385.9</ele>
        <time>2013-09-05T19:04:12Z</time>
      </trkpt>
      <trkpt lat="45.79047" lon="3.0837">
        <ele>383.4</ele>
        <time>2013-09-05T19:04:12Z</time>
      </trkpt>
      <trkpt lat="45.79354" lon="3.08253">
        <ele>397.7</ele>
        <time>2013-09-05T19:04:12Z</time>
      </trkpt>
    </trkseg>
  </trk>
</gpx>